Weather History for Northway, AK

Change the Weather History Date:

Tuesday, April 30, 2013

  Actual Average Record
Temperature  
Mean Temperature 26 °F -  
Max Temperature 35 °F 51 °F 70 °F (1979)
Min Temperature 18 °F 25 °F 10 °F (2006)
Degree Days  
Heating Degree Days 38    
Moisture  
Dew Point 16 °F    
Average Humidity 64    
Maximum Humidity 88    
Minimum Humidity 44    
Precipitation  
Precipitation 0.00 in - - ()
Snow  
Snow 0.00 in - - ()
Snow Depth 11.00 in    
Sea Level Pressure  
Sea Level Pressure 30.01 in    
Wind  
Wind Speed 1 mph (East)    
Max Wind Speed 9 mph    
Max Gust Speed -    
Visibility 10 miles    
Events Fog    
Averages and records for this station are not official NWS values.
T = Trace of Precipitation, MM = Missing Value Source: NWS Daily Summary

Daily Weather History Graph

Daily Weather History Graph

Search for Another Location

Airport:

Trip Planner

Search our weather history database for the weather conditions in past years. The results will help you decide how hot, cold, wet, or windy it might be!

Date:

Astronomy

Apr. 30, 2013 Rise Set
Actual Time 5:09 AM AKDT 9:41 PM AKDT
Civil Twilight 4:07 AM AKDT 10:45 PM AKDT
Nautical Twilight 1:50 AM AKDT 12:52 AM AKDT
Astronomical Twilight Sun does not rise Sun does not rise
Moon 2:34 AM AKDT (4/30) 9:29 AM AKDT (4/30)
Length of Visible Light 18h 38m
Length of Day
16h 31m
Waning Gibbous, 68% of the Moon is Illuminated
Apr 30
Waning Gibbous
May 2
Last Quarter
May 9
New
May 17
First Quarter
May 24
Full

Hourly Weather History & Observations

Time (AKDT) Temp. Windchill Dew Point Humidity Pressure Visibility Wind Dir Wind Speed Gust Speed Precip Events Conditions
12:53 AM 25.0 °F - 18.0 °F 75% 30.11 in 10.0 mi Calm Calm - N/A   Mostly Cloudy
1:53 AM 24.1 °F - 18.0 °F 77% 30.12 in 10.0 mi Calm Calm - N/A   Mostly Cloudy
2:53 AM 21.0 °F - 17.1 °F 85% 30.12 in 10.0 mi Calm Calm - N/A   Mostly Cloudy
3:53 AM 19.0 °F - 15.1 °F 85% 30.11 in 10.0 mi Calm Calm - N/A   Mostly Cloudy
4:53 AM 18.0 °F - 14.0 °F 84% 30.10 in 10.0 mi Calm Calm - N/A   Mostly Cloudy
5:53 AM 18.0 °F - 15.1 °F 88% 30.09 in 10.0 mi Calm Calm - N/A Fog Mostly Cloudy
6:53 AM 19.0 °F - 16.0 °F 88% 30.08 in 10.0 mi Calm Calm - N/A   Mostly Cloudy
7:53 AM 21.9 °F 17.2 °F 15.1 °F 75% 30.07 in 10.0 mi ENE 3.5 mph - N/A   Overcast
8:38 AM 23.0 °F 17.0 °F 15.8 °F 74% 29.96 in 10.0 mi East 4.6 mph - N/A   Mostly Cloudy
8:53 AM 24.1 °F 18.2 °F 15.1 °F 69% 30.06 in 10.0 mi ENE 4.6 mph - N/A   Mostly Cloudy
9:53 AM 28.9 °F - 17.1 °F 61% 30.04 in 10.0 mi Calm Calm - N/A   Mostly Cloudy
10:53 AM 30.9 °F 27.5 °F 15.1 °F 52% 30.02 in 10.0 mi SW 3.5 mph - N/A   Mostly Cloudy
11:53 AM 32.0 °F - 16.0 °F 52% 30.01 in 10.0 mi Calm Calm - N/A   Mostly Cloudy
12:53 PM 33.1 °F 30.0 °F 16.0 °F 50% 30.00 in 10.0 mi NW 3.5 mph - N/A   Mostly Cloudy
1:53 PM 32.0 °F 25.6 °F 17.1 °F 54% 30.00 in 10.0 mi WSW 6.9 mph - N/A   Mostly Cloudy
2:53 PM 33.1 °F 25.5 °F 16.0 °F 50% 29.99 in 10.0 mi SW 9.2 mph - N/A   Mostly Cloudy
3:53 PM 34.0 °F 31.0 °F 16.0 °F 48% 29.98 in 10.0 mi NW 3.5 mph - N/A   Mostly Cloudy
4:53 PM 34.0 °F - 16.0 °F 48% 29.96 in 10.0 mi Calm Calm - N/A   Overcast
5:53 PM 35.1 °F - 15.1 °F 44% 29.95 in 10.0 mi Calm Calm - N/A   Overcast
6:53 PM 33.1 °F - 18.0 °F 54% 29.95 in 10.0 mi Calm Calm - N/A   Overcast
7:53 PM 33.1 °F 30.0 °F 17.1 °F 52% 29.93 in 10.0 mi SE 3.5 mph - N/A   Mostly Cloudy
8:53 PM 33.1 °F 30.0 °F 18.0 °F 54% 29.92 in 10.0 mi ESE 3.5 mph - N/A   Mostly Cloudy
9:53 PM 30.9 °F - 19.0 °F 61% 29.91 in 10.0 mi Calm Calm - N/A   Mostly Cloudy
10:53 PM 30.0 °F 26.5 °F 18.0 °F 61% 29.90 in 10.0 mi NE 3.5 mph - N/A   Mostly Cloudy
11:53 PM 28.9 °F - 18.0 °F 64% 29.89 in 10.0 mi Calm Calm - N/A   Mostly Cloudy